DIWATA-2B

Last updated on Sun Aug 09 2026 00:03:15 GMT+0000 (Coordinated Universal Time)

1 43678U 18084H 26220.58287660 .00000713 00000+0 61597-4 0 9995 2 43678 98.1221 59.0942 0011075 4.1733 355.9580 15.00636684424075
UTC large
Height (km)
Speed (km/s)
/
Latitude / Longitude
Inclination (degrees)
Orbital Period (minutes)
Azimuth
Elevation
Range (km)
Doppler Factor

Next 0 passes for location: London (51.5072 / 0.1276)

No passes found over London.
DIWATA-2B